Terminal Aerodrome Forecast
Issued by NWS Portland, ME

Home | Current Version | Previous Version | Text Only | Print | Product List | Glossary On
Versions: 1 2 3 4 5 6 7 8 9 10 11 12 13 14 15 16 17 18 19 20
000
FTUS41 KGYX 242334
TAFPWM
TAF
KPWM 242334Z 2500/2524 32012G20KT P6SM BKN100
     FM250200 28010KT P6SM BKN100
     FM251400 30012G20KT P6SM SCT050 BKN070
     FM252200 31010KT P6SM SCT050 BKN100=

USA.gov is the U.S. government's official web portal to all federal, state and local government web resources and services.